Claxton, GA

2:57 PM EST on February 18, 2018 (GMT -0500)
Claxton-Evans County

Weather History for KCWV - April, 2014

Change the Weather History Date:

Wednesday, April 2, 2014

  Actual Average (KLHW) Record (KLHW)
Temperature  
Mean Temperature 68 °F -  
Max Temperature 86 °F 77 °F 89 °F (1974)
Min Temperature 50 °F 50 °F 37 °F (1985)
Cooling Degree Days 3    
Growing Degree Days 18 (Base 50)    
Moisture  
Dew Point 50 °F    
Average Humidity 59    
Maximum Humidity 100    
Minimum Humidity 23    
Precipitation  
Precipitation 0.00 in - - ()
Sea Level Pressure  
Sea Level Pressure 30.13 in    
Wind  
Wind Speed 1 mph (SW)    
Max Wind Speed 10 mph    
Max Gust Speed 16 mph    
Visibility 10 miles    
Events      
Averages and records for this station are not official NWS values.
T = Trace of Precipitation, MM = Missing Value Source: NWS Daily Summary

Daily Weather History Graph

Daily Weather History Graph

Search for Another Location

Airport or City:

Trip Planner

Search our weather history database for the weather conditions in past years. The results will help you decide how hot, cold, wet, or windy it might be!

Date:

Astronomy

Apr. 02, 2014 Rise Set
Actual Time 7:14 AM EDT 7:47 PM EDT
Civil Twilight 6:49 AM EDT 8:12 PM EDT
Nautical Twilight 6:20 AM EDT 8:41 PM EDT
Astronomical Twilight 5:51 AM EDT 9:11 PM EDT
Moon 9:07 AM EDT (4/2) 10:59 PM EDT (4/2)
Length of Visible Light 13h 22m
Length of Day
12h 33m
Waxing Crescent, 10% of the Moon is Illuminated
Apr 2
Waxing Crescent
Apr 7
First Quarter
Apr 15
Full
Apr 22
Last Quarter
Apr 29
New

Hourly Weather History & Observations

Time (EDT) Temp. Dew Point Humidity Pressure Visibility Wind Dir Wind Speed Gust Speed Precip Events Conditions
12:15 AM 60.8 °F 50.0 °F 68% 30.13 in 10.0 mi Calm Calm - N/A   Clear
12:35 AM 57.2 °F 50.0 °F 77% 30.14 in 10.0 mi Calm Calm - N/A   Clear
12:55 AM 55.4 °F 50.0 °F 82% 30.14 in 10.0 mi Calm Calm - N/A   Clear
1:15 AM 55.4 °F 51.8 °F 88% 30.13 in 10.0 mi Calm Calm - N/A   Clear
1:35 AM 53.6 °F 50.0 °F 88% 30.13 in 10.0 mi Calm Calm - N/A   Clear
1:55 AM 53.6 °F 51.8 °F 94% 30.13 in 10.0 mi Calm Calm - N/A   Clear
2:15 AM 53.6 °F 50.0 °F 88% 30.13 in 10.0 mi Calm Calm - N/A   Clear
2:35 AM 53.6 °F 50.0 °F 88% 30.13 in 10.0 mi Calm Calm - N/A   Clear
2:55 AM 51.8 °F 50.0 °F 94% 30.12 in 10.0 mi Calm Calm - N/A   Clear
3:15 AM 53.6 °F 51.8 °F 94% 30.12 in 10.0 mi Calm Calm - N/A   Clear
3:35 AM 51.8 °F 50.0 °F 94% 30.13 in 10.0 mi Calm Calm - N/A   Clear
3:55 AM 51.8 °F 50.0 °F 94% 30.13 in 10.0 mi Calm Calm - N/A   Clear
4:15 AM 51.8 °F 51.8 °F 100% 30.12 in 10.0 mi Calm Calm - N/A   Clear
4:35 AM 51.8 °F 51.8 °F 100% 30.12 in 10.0 mi Calm Calm - N/A   Clear
4:55 AM 50.0 °F 50.0 °F 100% 30.12 in 10.0 mi Calm Calm - N/A   Clear
5:15 AM 50.0 °F 50.0 °F 100% 30.12 in 10.0 mi Calm Calm - N/A   Clear
5:35 AM 50.0 °F 50.0 °F 100% 30.13 in 10.0 mi Calm Calm - N/A   Clear
5:55 AM 50.0 °F 50.0 °F 100% 30.13 in 10.0 mi Calm Calm - N/A   Clear
6:15 AM 50.0 °F 50.0 °F 100% 30.14 in 10.0 mi Calm Calm - N/A   Clear
6:35 AM - - N/A% 30.15 in 10.0 mi Calm Calm - N/A   Clear
6:55 AM - - N/A% 30.15 in 10.0 mi Calm Calm - N/A   Clear
7:15 AM - - N/A% 30.16 in 10.0 mi Calm Calm - N/A   Clear
8:35 AM 53.6 °F 53.6 °F 100% 30.17 in 10.0 mi Calm Calm - N/A   Clear
8:55 AM 59.0 °F 53.6 °F 82% 30.17 in 10.0 mi Calm Calm - N/A   Clear
9:15 AM 62.6 °F 53.6 °F 72% 30.17 in 10.0 mi Calm Calm - N/A   Clear
9:35 AM 64.4 °F 53.6 °F 68% 30.18 in 10.0 mi West 3.5 mph - N/A   Clear
9:55 AM 68.0 °F 53.6 °F 60% 30.18 in 10.0 mi Calm Calm - N/A   Clear
10:15 AM 69.8 °F 53.6 °F 56% 30.19 in 10.0 mi West 5.8 mph - N/A   Clear
10:35 AM 71.6 °F 51.8 °F 50% 30.18 in 10.0 mi West 3.5 mph - N/A   Clear
10:55 AM 75.2 °F 51.8 °F 44% 30.18 in 10.0 mi Calm Calm - N/A   Clear
11:15 AM 77.0 °F 48.2 °F 36% 30.18 in 10.0 mi West 4.6 mph - N/A   Clear
11:35 AM 78.8 °F 46.4 °F 32% 30.18 in 10.0 mi SW 3.5 mph - N/A   Clear
11:55 AM 78.8 °F 44.6 °F 30% 30.18 in 10.0 mi WSW 8.1 mph - N/A   Clear
12:35 PM 80.6 °F 42.8 °F 26% 30.17 in 10.0 mi SW 4.6 mph - N/A   Clear
12:55 PM 80.6 °F 41.0 °F 24% 30.17 in 10.0 mi SW 8.1 mph - N/A   Clear
1:15 PM 80.6 °F 41.0 °F 24% 30.17 in 10.0 mi South 10.4 mph - N/A   Clear
1:55 PM 82.4 °F 42.8 °F 25% 30.15 in 10.0 mi SSW 3.5 mph - N/A   Clear
2:15 PM 82.4 °F 44.6 °F 26% 30.15 in 10.0 mi South 5.8 mph - N/A   Clear
2:35 PM 84.2 °F 44.6 °F 25% 30.14 in 10.0 mi SW 6.9 mph - N/A   Clear
2:55 PM 84.2 °F 42.8 °F 23% 30.13 in 10.0 mi WSW 6.9 mph - N/A   Clear
3:15 PM 86.0 °F 44.6 °F 23% 30.12 in 10.0 mi West 5.8 mph - N/A   Clear
3:35 PM 86.0 °F 46.4 °F 25% 30.12 in 10.0 mi SW 5.8 mph 16.1 mph N/A   Clear
3:55 PM 86.0 °F 44.6 °F 23% 30.11 in 10.0 mi WSW 6.9 mph - N/A   Clear
4:15 PM 86.0 °F 44.6 °F 23% 30.10 in 10.0 mi SW 8.1 mph - N/A   Clear
4:35 PM 86.0 °F 44.6 °F 23% 30.10 in 10.0 mi WSW 3.5 mph - N/A   Clear
4:55 PM 86.0 °F 44.6 °F 23% 30.09 in 10.0 mi SW 6.9 mph - N/A   Clear
5:15 PM 86.0 °F 46.4 °F 25% 30.09 in 10.0 mi WSW 3.5 mph - N/A   Clear
5:35 PM 84.2 °F 46.4 °F 27% 30.08 in 10.0 mi Calm Calm - N/A   Clear
5:55 PM 84.2 °F 48.2 °F 29% 30.09 in 10.0 mi South 5.8 mph - N/A   Clear
6:15 PM 84.2 °F 46.4 °F 27% 30.09 in 10.0 mi SW 5.8 mph - N/A   Clear
6:35 PM 84.2 °F 48.2 °F 29% 30.09 in 10.0 mi South 3.5 mph - N/A   Clear
6:55 PM 82.4 °F 50.0 °F 32% 30.09 in 10.0 mi South 4.6 mph - N/A   Clear
7:15 PM 80.6 °F 50.0 °F 34% 30.09 in 10.0 mi South 4.6 mph - N/A   Clear
7:35 PM 78.8 °F 51.8 °F 39% 30.09 in 10.0 mi Calm Calm - N/A   Clear
7:55 PM 73.4 °F 53.6 °F 50% 30.10 in 10.0 mi Calm Calm - N/A   Clear
8:15 PM 69.8 °F 53.6 °F 56% 30.10 in 10.0 mi Calm Calm - N/A   Clear
8:35 PM 68.0 °F 53.6 °F 60% 30.10 in 10.0 mi Calm Calm - N/A   Clear
8:55 PM 68.0 °F 55.4 °F 64% 30.11 in 10.0 mi Calm Calm - N/A   Clear
9:15 PM 64.4 °F 55.4 °F 73% 30.11 in 10.0 mi Calm Calm - N/A   Clear
9:35 PM 64.4 °F 55.4 °F 73% 30.12 in 10.0 mi Calm Calm - N/A   Clear
9:55 PM 62.6 °F 53.6 °F 72% 30.13 in 10.0 mi Calm Calm - N/A   Clear
10:15 PM 60.8 °F 55.4 °F 82% 30.13 in 10.0 mi Calm Calm - N/A   Clear
10:35 PM 62.6 °F 53.6 °F 72% 30.13 in 10.0 mi Calm Calm - N/A   Clear
10:55 PM 64.4 °F 53.6 °F 68% 30.14 in 10.0 mi South 3.5 mph - N/A   Clear
11:15 PM 66.2 °F 55.4 °F 68% 30.13 in 10.0 mi SSW 4.6 mph - N/A   Clear
11:35 PM 68.0 °F 55.4 °F 64% 30.14 in 10.0 mi South 3.5 mph - N/A   Clear
11:55 PM 66.2 °F 55.4 °F 68% 30.14 in 10.0 mi Calm Calm - N/A   Clear